Regional Weather Roundup
Issued by NWS

Home | Current Version | Previous Version | Graphics & Text | Print | Product List | Glossary On
Versions: 1 2 3 4 5 6 7 8 9 10 11 12 13 14 15 16 17 18 19 20 21 22 23 24 25 26 27 28 29 30 31 32 33 34 35 36 37 38 39 40 41 42 43 44 45 46 47 48 49 50
000
ASUS43 KDMX 181106
RWRIA

WEATHER ROUNDUP FOR IOWA
NATIONAL WEATHER SERVICE DES MOINES IA
500 AM CST WED JAN 18 2017

NOTE: "FAIR" INDICATES FEW OR NO CLOUDS BELOW 12,000 FEET WITH NO
SIGNIFICANT WEATHER AND/OR OBSTRUCTIONS TO VISIBILITY.

* - THESE STATIONS ARE NOT NWS STATIONS...THUS NOT UNDER NWS
QUALITY CONTROL.  THEY ALSO DO NOT REPORT WEATHER SUCH
AS PRECIPITATION OR FOG.

IAZ001>003-012>014-020>022-031>034-043>046-181200-
   NORTHWEST IOWA

CITY           SKY/WX    TMP DP  RH WIND       PRES   REMARKS
CARROLL *      CLOUDY    32  32 100 SW5       30.02F WCI  27
CHEROKEE *     CLOUDY    27  27 100 CALM      29.99F
DENISON *      CLOUDY    28  27  93 S5        30.00S WCI  23
LE MARS *      CLOUDY    28  27  93 S7        29.97F WCI  21
ORANGE CITY *  CLOUDY    27  27 100 S8        29.95F WCI  18
SHELDON *      CLOUDY    30  30 100 S14G21    29.93F WCI  20
SIOUX CITY     CLOUDY    26  23  88 E7        29.97F WCI  18
SPENCER        CLOUDY    29  26  89 S14       29.96F WCI  18
STORM LAKE *   CLEAR     28  27  93 SW10      29.99F WCI  19
$$

IAZ055>058-069>071-079>083-090>094-181200-
   SOUTHWEST IOWA

CITY           SKY/WX    TMP DP  RH WIND       PRES   REMARKS
ATLANTIC *     CLEAR     28  28 100 S10       30.07S WCI  19
AUDUBON *      CLEAR     27  25  93 CALM      30.05S
CLARINDA *     FOG       27  27 100 S5        30.12S VSB 1/4 WCI  21
COUNCIL BLFS * CLOUDY    30  30 100 S7        30.05F WCI  23
CRESTON *      FOG       28  28 100 SW5       30.09F VSB 1/2 WCI  23
HARLAN  *      CLOUDY    27  27 100 S10       30.08S FOG     WCI  17
LAMONI         FOG       30  30 100 S7        30.10F VSB 1/4 WCI  23
RED OAK *      CLOUDY    27  27 100 CALM      30.08F
SHENANDOAH *   CLOUDY    25  25 100 S6        30.10S WCI  18
$$

IAZ047>049-059>061-072>074-084-181200-
   CENTRAL IOWA

CITY           SKY/WX    TMP DP  RH WIND       PRES   REMARKS
AMES           CLOUDY    30  30 100 S3        30.07F FOG
ANKENY *       CLOUDY    30  28  93 CALM      30.10S FOG
BOONE *        CLOUDY    30  30 100 S5        30.04F FOG     WCI  25
CHARITON *     FOG       32  32 100 SW10      30.11S VSB 1/4 WCI  24
DES MOINES     CLOUDY    30  28  92 SE6       30.09S FOG     WCI  24
GRINNELL*      CLOUDY    31  29  95 W3        30.10F FOG
KNOXVILLE *    CLOUDY    32  30  93 SW7       30.09F FOG     WCI  26
MARSHALLTOWN   CLOUDY    30  29  96 W12       30.08F FOG     WCI  20
NEWTON *       CLOUDY    32  30  93 SW7G14    30.09S FOG     WCI  26
PELLA *        CLOUDY    32  30  94 SW5       30.12F FOG     WCI  27
PERRY *          N/A     31  31 100 SE7       30.06F FOG     WCI  24
$$

IAZ004>006-015-016-023>025-035-036-181200-
   NORTH CENTRAL IOWA

CITY           SKY/WX    TMP DP  RH WIND       PRES   REMARKS
ALGONA *       FOG       30  30 100 S17       30.00F VSB 1   WCI  18
CLARION *      CLOUDY    30  32 100 S12       30.04F FOG     WCI  21
ESTHERVILLE    CLOUDY    25  25 100 S14       29.96F FOG     WCI  13
FORT DODGE *   MOCLDY    30  27  86 MISG      30.04F
MASON CITY     CLOUDY    28  27  96 SW14      30.05F FOG     WCI  17
FOREST CITY *  CLOUDY    30  30 100 S12       30.02F FOG     WCI  21
WEBSTER CITY * CLOUDY    30  30 100 S7        30.03F FOG     WCI  23
IOWA FALLS *   CLOUDY    31  30  95 SW7       30.07F FOG     WCI  25
$$

IAZ007>011-017>019-026>030-037>042-050>054-066-181200-
   NORTHEAST IOWA

CITY           SKY/WX    TMP DP  RH WIND       PRES   REMARKS
CEDAR RAPIDS   CLOUDY    31  29  92 W9        30.10F FOG     WCI  23
CHARLES CITY * CLOUDY    28  30 100 SW13G22   30.07S WCI  18
CLINTON *      CLOUDY    33  33 100 W17       30.12F FOG     WCI  22
DECORAH *      CLOUDY    30  30 100 SW8G15    30.05S WCI  23
DUBUQUE        CLOUDY    32  31  96 SW14      30.08F FOG     WCI  22
MONTICELLO *   CLOUDY    32  32 100 W13       30.11S FOG     WCI  22
OELWEIN *      CLOUDY    30  30 100 SW15      30.09S WCI  19
WATERLOO       CLOUDY    30  28  92 SW10      30.09F FOG     WCI  21
$$

IAZ064-065-067-068-078-181200-
   EAST CENTRAL IOWA

CITY           SKY/WX    TMP DP  RH WIND       PRES   REMARKS
DAVENPORT      CLOUDY    33  32  96 W12       30.12F WCI  24
IOWA CITY      CLOUDY    33  29  85 SW12      30.14F WCI  24
MUSCATINE *    CLOUDY    34  30  86 SW9       30.15F WCI  26
QUAD CITIES    CLOUDY    35  32  88 W9        30.12F WCI  28
$$

IAZ062-063-075>077-085>089-095>099-181200-
   SOUTHEAST IOWA

CITY           SKY/WX    TMP DP  RH WIND       PRES   REMARKS
BURLINGTON     CLOUDY    32  31  96 SW5       30.14F WCI  27
FAIRFIELD *    CLOUDY    30  28  93 CALM      30.13F
FORT MADISON * CLOUDY    30  30 100 SW3       30.16S
KEOKUK *       CLOUDY    32  30  93 SW6       30.15S WCI  26
OSKALOOSA *    MOCLDY    29  28  97 CALM      30.12F FOG
OTTUMWA        CLOUDY    32  28  85 SW7       30.12S WCI  26
WASHINGTON *   CLOUDY    32  30  93 W5        30.15S WCI  27
$$

ABBREVIATIONS USED IN REMARKS
   TC - TEMPERATURES IN CELSIUS
  WCI - WIND CHILL INDEX
   HX - HEAT INDEX
  VSB - VISIBILITY
$$





USA.gov is the U.S. government's official web portal to all federal, state and local government web resources and services.